[[{"header":{"parameterUnit":"m.s-1","parameterCategory":1,"la1":30.2991,"la2":30.254,"lo1":-89.0895,"lo2":-89.0444,"dy":0.0017,"dx":0.0017,"nx":28,"ny":28,"refTime":"2025-05-15T21:00:00:Z","depth":0,"parameterNumber":2,"parameterNumberName":"U-component_of_WINDS"},"data":[0,0,0,0,0,0,0,0,0,0,0,0,0,0,0,0,0,0,0,0,0,0,0,0,0,0,0,0,0,0,0,0,0,0,0,0,0,0,0,0,0,0,0,0,0,0,0,0,0,0,0,0,0,0,0,0,0,0,0.6407,0.6408,0,0.6469,0.647,0.647,0.65,0.65,0.65,0.65,0.6564,0.6566,0.6567,0,0,0,0,0,0,0,0,0,0,0,0,0,0.6314,0.6315,0.6407,0.6408,0.6408,0.6469,0.647,0.647,0.65,0.65,0.65,0.65,0.6563,0.6566,0.6568,0,0,0,0,0,0,0,0,0,0,0,0,0,0.6363,0.6316,0.6407,0.643,0.6433,0.6469,0.647,0.6471,0.65,0.65,0.65,0.65,0.6563,0.6565,0.6568,0.6585,0,0,0.6576,0.6577,0,0,0,0,0,0,0,0,0.636,0.6366,0.6426,0.6429,0.6432,0.6477,0.6461,0.6509,0.65,0.6474,0.65,0.65,0.6535,0.654,0.6552,0.6588,0.6591,0.6576,0.6578,0.6579,0.658,0,0,0,0,0,0,0,0.6357,0.6364,0.6431,0.6427,0.643,0.6438,0.6445,0.647,0.6504,0.6477,0.6479,0.6486,0.6537,0.6549,0.6553,0.6592,0.6576,0.6578,0.658,0.6581,0.6645,0.6645,0,0,0,0,0,0,0.6349,0.6361,0.6429,0.6433,0.6395,0.6439,0.6447,0.6462,0.6504,0.651,0.6486,0.6487,0.6545,0.655,0.6556,0.6579,0.6579,0.6581,0.6583,0.6645,0.6645,0.6645,0,0,0,0,0,0,0.6347,0.6355,0.6427,0.6398,0.6407,0.6441,0.6458,0.6463,0.6476,0.6511,0.6517,0.6492,0.6545,0.6552,0.6577,0.6581,0.6582,0.6585,0.6645,0.6645,0.6645,0.6624,0,0,0,0,0,0,0.6344,0.6354,0.6361,0.6398,0.6409,0.6447,0.6458,0.6465,0.648,0.6482,0.6519,0.6525,0.6545,0.6573,0.658,0.6585,0.6587,0.6645,0.6645,0.6645,0.6625,0.6624,0.6623,0,0,0,0,0,0.6341,0.6353,0.6361,0.6369,0.6418,0.6448,0.6454,0.6477,0.6481,0.6488,0.651,0.6524,0.658,0.6576,0.6584,0.6589,0.6645,0.6645,0.6645,0.6625,0.6624,0.6623,0,0,0,0,0,0,0.6316,0.6358,0.6368,0.6392,0.6416,0.6452,0.6462,0.6475,0.6499,0.65,0.6528,0.6536,0.6559,0.6577,0.6572,0.6608,0.6613,0.6615,0.6596,0.6595,0.6594,0.6589,0.6589,0,0,0,0,0,0.6314,0.6334,0.637,0.6387,0.6399,0.6428,0.6442,0.6458,0.6484,0.6494,0.6519,0.6544,0.6567,0.6582,0.6605,0.6627,0.6636,0.6635,0.6634,0.6633,0.6635,0.6648,0.6648,0.6646,0.6646,0.6646,0,0,0.6309,0.6334,0.6345,0.6383,0.6404,0.6424,0.6437,0.6458,0.6474,0.6498,0.6523,0.6542,0.6571,0.6595,0.6607,0.6611,0.6637,0.6634,0.6632,0.6635,0.6648,0.6648,0.6648,0.6647,0.6647,0.6646,0,0,0.631,0.6331,0.6348,0.6368,0.6399,0.6418,0.6422,0.6457,0.647,0.6496,0.6514,0.6533,0.6572,0.6593,0.6608,0.6616,0.6629,0.6623,0.6618,0.6631,0.6631,0.6631,0.6634,0.6635,0.6624,0.6624,0.6624,0,0.63,0.6331,0.6355,0.6376,0.6392,0.6414,0.6431,0.645,0.6486,0.6497,0.65,0.655,0.6572,0.6601,0.6602,0.6614,0.662,0.6619,0.6629,0.6629,0.663,0.6633,0.6634,0.6623,0.6623,0.6623,0.6623,0,0.6317,0.6339,0.6349,0.6384,0.6401,0.642,0.6446,0.6461,0.6475,0.6494,0.652,0.6546,0.6575,0.6583,0.6597,0.6614,0.6615,0.6623,0.6629,0.6628,0.6632,0.6633,0.6622,0.6622,0.6622,0.6623,0,0,0.6305,0.6353,0.6356,0.6372,0.6407,0.6424,0.6444,0.6472,0.6484,0.6508,0.6525,0.6558,0.6565,0.6583,0.6599,0.661,0.6614,0.6617,0.6618,0.6616,0.6634,0.6628,0.663,0.6623,0.6623,0.6624,0.6632,0,0.6312,0.6348,0.637,0.6397,0.6417,0.6438,0.6455,0.6479,0.6497,0.6517,0.6537,0.6559,0.6567,0.6578,0.6589,0.6611,0.6619,0.6611,0.664,0.664,0.6632,0.6631,0.6625,0.6632,0.6634,0.6634,0.6634,0,0.6324,0.6348,0.6377,0.6409,0.6419,0.6434,0.6461,0.6479,0.6506,0.6519,0.6538,0.6554,0.6576,0.6579,0.6609,0.6604,0.6617,0.6629,0.663,0.6634,0.6638,0.6636,0.6635,0.6636,0.6636,0.6636,0.6636,0,0.6313,0.6352,0.6374,0.6387,0.6426,0.6436,0.6452,0.6479,0.6494,0.6518,0.6528,0.6554,0.6568,0.6588,0.6611,0.6611,0.6639,0.6644,0.665,0.6649,0.6655,0.6654,0.6656,0.6662,0.6662,0.6662,0.6662,0,0.6318,0.6335,0.637,0.6384,0.6403,0.6428,0.6447,0.6465,0.6488,0.6506,0.6526,0.6542,0.6571,0.6591,0.6609,0.6631,0.6637,0.6648,0.6653,0.6647,0.6645,0.6656,0.6656,0.6663,0.6663,0.6663,0.6662,0,0.6309,0.6333,0.6359,0.6393,0.6402,0.6415,0.6444,0.6458,0.6477,0.6499,0.6506,0.6535,0.656,0.6584,0.6617,0.6629,0.6651,0.6657,0.6642,0.6645,0.6649,0.6648,0.6658,0.6661,0.6664,0.6664,0.6664,0,0.6311,0.6324,0.636,0.6373,0.6389,0.641,0.6425,0.645,0.6466,0.6497,0.6507,0.6533,0.6555,0.6592,0.6617,0.6642,0.6649,0.6651,0.6653,0.6647,0.665,0.6649,0.665,0.665,0.665,0.665,0.665,0,0.6311,0.6322,0.6344,0.637,0.6388,0.6409,0.6432,0.6441,0.647,0.6487,0.6511,0.6528,0.6562,0.6587,0.6615,0.6632,0.6646,0.6649,0.6651,0.6646,0.6636,0.6642,0.664,0.6649,0.6649,0.6649,0.6649,0.6649,0.6308,0.6321,0.6348,0.6371,0.6391,0.6411,0.6426,0.6446,0.6467,0.6496,0.651,0.6535,0.6561,0.6599,0.6616,0.6636,0.664,0.6644,0.6645,0.6645,0.6644,0.6632,0.6641,0.6641,0.6641,0.6641,0.6641,0,0.631,0.6328,0.635,0.638,0.6398,0.6409,0.6434,0.6449,0.6471,0.6494,0.6515,0.6543,0.6567,0.6593,0.6619,0.663,0.6637,0.6636,0.6636,0.664,0.6639,0.6634,0.663,0.663,0.663,0.663,0.663,0.663,0.6313,0.6336,0.635,0.6382,0.6401,0.6425,0.6438,0.6457,0.6476,0.6506,0.6527,0.6543,0.6568,0.6595,0.6618,0.6625,0.6634,0.6631,0.664,0.6639,0.664,0.6641,0.6636,0.6633,0.6633,0.6639,0.6639,0.6639]},{"header":{"parameterUnit":"m.s-1","parameterCategory":1,"la1":30.2991,"la2":30.254,"lo1":-89.0895,"lo2":-89.0444,"dy":0.0017,"dx":0.0017,"nx":28,"ny":28,"refTime":"2025-05-15T21:00:00:Z","depth":0,"parameterNumber":3,"parameterNumberName":"V-component_of_WINDS"},"data":[0,0,0,0,0,0,0,0,0,0,0,0,0,0,0,0,0,0,0,0,0,0,0,0,0,0,0,0,0,0,0,0,0,0,0,0,0,0,0,0,0,0,0,0,0,0,0,0,0,0,0,0,0,0,0,0,0,0,4.6151,4.6151,0,4.6109,4.6109,4.6108,4.6087,4.6087,4.6087,4.6087,4.6038,4.6036,4.6035,0,0,0,0,0,0,0,0,0,0,0,0,0,4.621,4.6209,4.6151,4.6151,4.615,4.6109,4.6109,4.6108,4.6087,4.6087,4.6087,4.6087,4.6038,4.6036,4.6035,0,0,0,0,0,0,0,0,0,0,0,0,0,4.6177,4.6208,4.6152,4.6135,4.6133,4.6109,4.6109,4.6108,4.6087,4.6087,4.6087,4.6087,4.6039,4.6037,4.6035,4.6022,0,0,4.6029,4.6028,0,0,0,0,0,0,0,0,4.6179,4.6175,4.6138,4.6136,4.6134,4.6103,4.6111,4.6079,4.6087,4.6104,4.6087,4.6087,4.6059,4.6055,4.6047,4.602,4.6018,4.6029,4.6027,4.6026,4.6026,0,0,0,0,0,0,0,4.6181,4.6177,4.6135,4.6137,4.6135,4.6128,4.6124,4.6105,4.6082,4.6103,4.6101,4.6097,4.6058,4.6049,4.6046,4.6017,4.6029,4.6027,4.6026,4.6025,4.5979,4.5979,0,0,0,0,0,0,4.6187,4.6179,4.6136,4.6133,4.6157,4.6127,4.6122,4.6113,4.6082,4.6078,4.6097,4.6096,4.6053,4.6048,4.6044,4.6029,4.6026,4.6025,4.6024,4.5979,4.5979,4.5979,0,0,0,0,0,0,4.6188,4.6183,4.6138,4.6156,4.6149,4.6126,4.6116,4.6112,4.6104,4.6078,4.6073,4.6092,4.6052,4.6047,4.6029,4.6027,4.6024,4.6022,4.5979,4.5979,4.5979,4.5997,0,0,0,0,0,0,4.619,4.6184,4.618,4.6156,4.6149,4.6124,4.6116,4.6111,4.6101,4.6099,4.6072,4.6068,4.6052,4.6032,4.6027,4.6024,4.602,4.5979,4.5979,4.5979,4.5996,4.5998,4.5998,0,0,0,0,0,4.6192,4.6185,4.618,4.6175,4.6143,4.6124,4.612,4.6103,4.6101,4.6096,4.608,4.6069,4.6028,4.603,4.6024,4.6021,4.5979,4.5979,4.5979,4.5996,4.5997,4.5998,0,0,0,0,0,0,4.6208,4.6182,4.6176,4.6161,4.6145,4.6121,4.6114,4.6105,4.6088,4.6087,4.6066,4.606,4.6044,4.603,4.6033,4.6008,4.6002,4.6001,4.6017,4.6018,4.6019,4.6023,4.6019,0,0,0,0,0,4.621,4.6198,4.6175,4.6164,4.6157,4.6137,4.6128,4.6117,4.6099,4.6092,4.6074,4.6055,4.6038,4.6027,4.601,4.5994,4.5988,4.5989,4.599,4.5991,4.599,4.5981,4.5982,4.5978,4.5978,4.5978,0,0,4.6213,4.6198,4.6191,4.6167,4.6154,4.6141,4.6132,4.6118,4.6108,4.6089,4.6072,4.6058,4.6036,4.6019,4.6011,4.6007,4.599,4.5991,4.5992,4.599,4.5981,4.5982,4.5982,4.5978,4.5978,4.5978,0,0,4.6213,4.62,4.6191,4.6178,4.6158,4.6145,4.6143,4.612,4.6111,4.6094,4.608,4.6067,4.6038,4.6023,4.6012,4.6008,4.5997,4.6002,4.6007,4.5999,4.6,4.6,4.5999,4.5999,4.6002,4.6002,4.6002,0,4.6219,4.6201,4.6186,4.6174,4.6164,4.6149,4.6138,4.6126,4.6101,4.6094,4.6091,4.6055,4.6039,4.6019,4.6019,4.601,4.6006,4.6005,4.6001,4.6001,4.6001,4.6,4.6,4.6002,4.6002,4.6002,4.6002,0,4.621,4.6197,4.6191,4.6171,4.616,4.6148,4.6131,4.6121,4.6111,4.6098,4.6081,4.6061,4.6041,4.6035,4.6024,4.6014,4.6013,4.6006,4.6,4.6003,4.6001,4.6,4.6004,4.6003,4.6003,4.6003,0,0,4.6217,4.619,4.6188,4.6179,4.6157,4.6146,4.6134,4.6116,4.6108,4.6092,4.6081,4.6058,4.6052,4.6039,4.6026,4.6019,4.6018,4.6013,4.6012,4.6015,4.6006,4.6012,4.6012,4.6011,4.6011,4.6011,4.6008,0,4.6214,4.6194,4.6181,4.6165,4.6153,4.6139,4.6129,4.6113,4.6101,4.6088,4.6074,4.6058,4.6052,4.6044,4.6036,4.602,4.6016,4.602,4.6,4.6,4.6007,4.6011,4.6016,4.6015,4.6008,4.6008,4.6007,0,4.6208,4.6194,4.6178,4.6159,4.6154,4.6145,4.6128,4.6116,4.6098,4.609,4.6077,4.6065,4.605,4.6046,4.6026,4.6029,4.602,4.6011,4.6011,4.6008,4.6004,4.6009,4.6014,4.6014,4.6006,4.6006,4.6006,0,4.6216,4.6193,4.6181,4.6173,4.615,4.6145,4.6134,4.6117,4.6108,4.6092,4.6086,4.6068,4.6058,4.6044,4.6028,4.6026,4.6009,4.6003,4.6001,4.6002,4.5998,4.5999,4.6002,4.5992,4.5992,4.5992,4.5992,0,4.6214,4.6204,4.6185,4.6177,4.6166,4.6151,4.614,4.6128,4.6113,4.6103,4.6089,4.6078,4.6057,4.6044,4.6031,4.6016,4.6012,4.6004,4.6001,4.6005,4.6007,4.5999,4.5999,4.5992,4.5992,4.5992,4.5992,0,4.622,4.6207,4.6193,4.6173,4.6168,4.6161,4.6143,4.6135,4.6123,4.6109,4.6105,4.6085,4.607,4.6052,4.6029,4.602,4.6007,4.6002,4.6014,4.6012,4.6011,4.6012,4.601,4.6009,4.6,4.6,4.6,0,4.622,4.6213,4.6193,4.6186,4.6177,4.6166,4.6157,4.6141,4.6132,4.6113,4.6107,4.609,4.6076,4.6052,4.6034,4.6017,4.6012,4.6012,4.6009,4.6015,4.6012,4.6013,4.6013,4.6013,4.6013,4.6014,4.6014,0,4.6221,4.6215,4.6204,4.619,4.6181,4.6168,4.6156,4.615,4.6132,4.6122,4.6107,4.6097,4.6076,4.6059,4.6041,4.6029,4.6018,4.6015,4.6014,4.6019,4.6027,4.6023,4.6017,4.6015,4.6015,4.6015,4.6015,4.6015,4.6224,4.6218,4.6204,4.6192,4.6181,4.617,4.6162,4.615,4.6138,4.6121,4.6112,4.6097,4.608,4.6055,4.6043,4.6031,4.6027,4.6025,4.6024,4.6024,4.6026,4.6029,4.6027,4.6027,4.6027,4.6027,4.6027,0,4.6225,4.6216,4.6205,4.6189,4.618,4.6173,4.6159,4.6151,4.6139,4.6125,4.6113,4.6096,4.6081,4.6063,4.6047,4.604,4.6035,4.6036,4.6037,4.6034,4.603,4.6033,4.6041,4.6041,4.6041,4.6041,4.6041,4.6041,4.6225,4.6214,4.6207,4.6191,4.6181,4.6168,4.6161,4.6151,4.614,4.6122,4.6111,4.61,4.6085,4.6067,4.6053,4.6048,4.6043,4.6046,4.6039,4.6036,4.6034,4.6033,4.6036,4.6045,4.6045,4.6045,4.6045,4.6045]}]]